sat.trackr.live / text

‹ back to catalog

STARLINK-37736

NORAD 69226 · 2026-115R

PAYLOAD ACTIVE UNKNOWN

§ Identity

Operator
Country
US
Launch date
2026-05-26
Launch site
AFWTR
Launch vehicle
Mass (kg)
RCS (m²)

Purposes: comms

External: N2YO · Heavens-Above · Gunter

§ Orbital elements

Epoch: 2026-09-19T23:43:35.586048Z

Period
93.90 min
Inclination
97.2839°
Eccentricity
0.0002256
Mean motion
15.33466082 rev/d
Perigee alt
463.9 km
Apogee alt
467.0 km
Semi-major
6,843.6 km
B*
6.8839e-4
RAAN
279.1161°
Arg perigee
91.5568°
Mean anomaly
268.5933°
Rev number
1,921

§ Raw data

STARLINK-377361 69226U 26115R   26262.98860632  .00022230  00000+0  68839-3 0  99952 69226  97.2839 279.1161 0002256  91.5568 268.5933 15.33466082 19218

JSON: /api/v1/satellites/69226 · /tle

For live sub-satellite position, see the globe view (requires WebGL).

§ Visibility from observer

Set your observer location to see the next 7 days of passes ≥ 10°. The values pass through the URL so the page stays shareable.

No JS? Fill the form by hand. The geolocation button needs JavaScript.